sat.trackr.live / text

‹ back to catalog

STARLINK-5446

NORAD 54789 · 2022-175AH

PAYLOAD ACTIVE UNKNOWN

§ Identity

Operator
Country
US
Launch date
2022-12-17
Launch site
AFETR
Launch vehicle
Mass (kg)
RCS (m²)

Purposes: comms

External: N2YO · Heavens-Above · Gunter

§ Orbital elements

Epoch: 2026-05-24T22:42:49.480992Z

Period
95.44 min
Inclination
53.2154°
Eccentricity
0.0001324
Mean motion
15.08828058 rev/d
Perigee alt
538.9 km
Apogee alt
540.7 km
Semi-major
6,917.9 km
B*
-8.7535e-5
RAAN
31.5572°
Arg perigee
87.0404°
Mean anomaly
273.0740°
Rev number
19,185

§ Raw data

STARLINK-54461 54789U 22175AH  26144.94640603 -.00001680  00000+0 -87535-4 0  99972 54789  53.2154  31.5572 0001324  87.0404 273.0740 15.08828058191853

JSON: /api/v1/satellites/54789 · /tle

For live sub-satellite position, see the globe view (requires WebGL).

§ Visibility from observer

Set your observer location to see the next 7 days of passes ≥ 10°. The values pass through the URL so the page stays shareable.

No JS? Fill the form by hand. The geolocation button needs JavaScript.